Location: Unspecified
(0.0000°N, 0.0000°E)
Time: 19:24:03
(UTC+02:00)

SWIFT - Visible Passes

Search period start: 25 September 2016 00:00
Search period end: 05 October 2016 00:00
Orbit: 548 x 565 km, 20.6° (Epoch: 25 September)

Date Brightness Start Highest point End Pass type
(mag) Time Alt. Az. Time Alt. Az. Time Alt. Az.
29 Sep 5.0 21:47:44 10° NNW 21:48:08 12° NNW 21:48:08 12° NNW visible
30 Sep 4.6 21:42:28 10° NW 21:43:43 17° NNW 21:43:43 17° NNW visible
01 Oct 4.1 21:37:18 10° NW 21:39:20 25° NNW 21:39:20 25° NNW visible
02 Oct 3.5 21:32:15 10° WNW 21:35:00 37° NW 21:35:00 37° NW visible
03 Oct 2.8 21:27:16 10° WNW 21:30:43 58° WNW 21:30:43 58° WNW visible
04 Oct 2.5 21:22:24 10° WNW 21:26:29 65° SW 21:26:29 65° SW visible
